Aérodrome :
LOGIN :

S'inscrire | Disclaimer

   EN    FR    IT 

 










Légende :    VFR   VFR Marginal   IFR   IFR Intensif   IFR Très Intensif
Visi : 
Plafond : 
>= 8 km
>= 3000ft
5 à 8 km
1000 à 3000 ft
1500m à 5 km
500 à 1000 ft
800 à 1500m
200 à 500 ft
< 800m
< 200 ft
Symboles :   Orages  Brouillard  Fortes neiges  Fortes précipitations  Vent > 20 kt
SIGMETs :   Divers  Orages  Givrage  Turbulence  Onde Orograph.  Cendres Volcan.






- Altitude de l'aérodrome : 336 ft
- Code IATA : GCI


EGJB - Guernsey

DERNIER METAR :
  • 260420Z 25009KT 9999 -SHRA FEW006 SCT015 BKN040 13/12 Q1020

METARs EXPIRÉS :
  • 260350Z 24014KT 9999 VCSH FEW010 SCT015 BKN040 13/12 Q1019
  • 260320Z 26011KT 9999 FEW020 BKN040 14/10 Q1019
  • 260250Z 25012KT 9999 FEW020 BKN045 14/10 Q1020
  • 260150Z 26013KT 9999 FEW020 BKN047 13/10 Q1020

TAF TAF EGJB
Valide du 26 à 03h jusqu'au 26 à 12h UTC


260156Z 2603/2612 25015KT 9999 FEW010 SCT015
PROB30
TEMPO 2603/2612 7000 SHRA BKN010
ATIS : +44 1481 238 957



MET'MAP, la Météo Aéronautique d'un coup d'oeil ! - Copyright ORBIFLY Décembre 2007 - Disclaimer

ORBIFLY MET'MAP TEAM :

Programmation & Développement : Alexandra Zaïnal
Sur une idée originale de : Baudouin d'Aumeries
Assistance à la programmation : Marc-Olivier Méhu
Soutien technique & logistique : Manuel Goepfert

Contact : metmap@orbifly.com




SOURCES & CREDITS :

   NOAA